Location: Clanezzo
(45.7500°N, 9.6000°E)
Time: 02:33:42
(UTC+00:00)

GPS 2-04 Rocket1 - Pass Details

Date: 12 May 2021
Orbit: 416 x 540 km, 35.6° (Epoch: 18 June)

Event Time Altitude Azimuth Distance (km) Brightness Sun altitude
Rises 19:54:07 0° 238° (WSW) 2,679 6.6 -11.0°
Reaches altitude 10° 19:56:52 10° 221° (SW) 1,780 5.4 -11.4°
Maximum altitude 19:59:48 19° 175° (S) 1,295 4.3 -11.8°
Enters shadow 20:00:59 17° 152° (SSE) 1,379 4.3 -11.9°
